Weather History for Sedalia, MO

Change the Weather History Date:

Wednesday, February 6, 2013

  Actual Average Record
Temperature  
Mean Temperature 47 °F 34 °F  
Max Temperature 62 °F 43 °F 68 °F (2009)
Min Temperature 31 °F 25 °F -17 °F (1982)
Degree Days  
Heating Degree Days 18 31  
Month to date heating degree days 169 189  
Since 1 July heating degree days 2769 3004  
Cooling Degree Days 0 0  
Month to date cooling degree days 0 0  
Year to date cooling degree days 1 0  
Moisture  
Dew Point 31 °F    
Average Humidity 60    
Maximum Humidity 85    
Minimum Humidity 35    
Precipitation  
Precipitation 0.00 in 0.07 in 0.80 in (1951)
Month to date precipitation T 0.41  
Year to date precipitation 2.70 2.08  
Sea Level Pressure  
Sea Level Pressure 30.06 in    
Wind  
Wind Speed 11 mph (SE)    
Max Wind Speed 20 mph    
Max Gust Speed 23 mph    
Visibility 10 miles    
Events      
T = Trace of Precipitation, MM = Missing Value Source: NWS Daily Summary

Daily Weather History Graph

Daily Weather History Graph

Search for Another Location

Airport:

Trip Planner

Search our weather history database for the weather conditions in past years. The results will help you decide how hot, cold, wet, or windy it might be!

Date:

Astronomy

Feb. 06, 2013 Rise Set
Actual Time 7:13 AM CST 5:40 PM CST
Civil Twilight 6:45 AM CST 6:08 PM CST
Nautical Twilight 6:14 AM CST 6:39 PM CST
Astronomical Twilight 5:43 AM CST 7:10 PM CST
Moon 3:56 AM CST (2/6) 2:00 PM CST (2/6)
Length of Visible Light 11h 22m
Length of Day
10h 27m
Waning Crescent, 17% of the Moon is Illuminated
Feb 6
Waning Crescent
Feb 10
New
Feb 17
First Quarter
Feb 25
Full
Mar 4
Last Quarter

Hourly Weather History & Observations

Time (CST) Temp. Windchill Dew Point Humidity Pressure Visibility Wind Dir Wind Speed Gust Speed Precip Events Conditions
12:53 AM 37.9 °F 35.5 °F 27.0 °F 65% 30.14 in 10.0 mi SE 3.5 mph - N/A   Clear
1:53 AM 34.0 °F 28.8 °F 27.0 °F 75% 30.14 in 10.0 mi East 5.8 mph - N/A   Clear
3:53 AM 33.1 °F 28.7 °F 28.0 °F 82% 30.14 in 10.0 mi SE 4.6 mph - N/A   Clear
4:53 AM 30.9 °F 24.3 °F 27.0 °F 85% 30.16 in 10.0 mi SSE 6.9 mph - N/A   Clear
5:53 AM 32.0 °F 25.6 °F 28.0 °F 85% 30.15 in 10.0 mi SE 6.9 mph - N/A   Clear
6:53 AM 32.0 °F 26.4 °F 27.0 °F 82% 30.15 in 10.0 mi SE 5.8 mph - N/A   Clear
7:53 AM 34.0 °F 26.0 °F 28.9 °F 82% 30.17 in 10.0 mi SSE 10.4 mph - N/A   Clear
8:53 AM 39.9 °F 32.5 °F 30.9 °F 70% 30.16 in 10.0 mi SE 12.7 mph - N/A   Clear
9:53 AM 45.0 °F 38.5 °F 32.0 °F 60% 30.14 in 10.0 mi SE 13.8 mph - N/A   Clear
10:53 AM 50.0 °F - 30.0 °F 46% 30.14 in 10.0 mi SSE 13.8 mph - N/A   Clear
11:53 AM 54.0 °F - 30.9 °F 41% 30.10 in 10.0 mi SE 12.7 mph - N/A   Clear
12:53 PM 57.0 °F - 32.0 °F 39% 30.07 in 10.0 mi ESE 10.4 mph - N/A   Clear
1:53 PM 61.0 °F - 32.0 °F 34% 30.03 in 10.0 mi SSE 12.7 mph 18.4 mph N/A   Clear
2:53 PM 61.0 °F - 32.0 °F 34% 30.00 in 10.0 mi SE 17.3 mph 23.0 mph N/A   Clear
3:53 PM 60.1 °F - 32.0 °F 35% 29.99 in 10.0 mi SSE 12.7 mph - N/A   Partly Cloudy
4:53 PM 59.0 °F - 33.1 °F 38% 29.98 in 10.0 mi SE 12.7 mph - N/A   Mostly Cloudy
5:53 PM 55.9 °F - 33.1 °F 42% 29.98 in 10.0 mi SSE 12.7 mph - N/A   Mostly Cloudy
6:53 PM 53.1 °F - 33.1 °F 47% 29.97 in 10.0 mi SSE 11.5 mph - N/A   Partly Cloudy
7:53 PM 51.1 °F - 34.0 °F 52% 29.97 in 10.0 mi SSE 12.7 mph - N/A   Clear
8:53 PM 51.1 °F - 34.0 °F 52% 29.97 in 10.0 mi SSE 13.8 mph - N/A   Clear
9:53 PM 51.1 °F - 34.0 °F 52% 29.98 in 10.0 mi SSE 12.7 mph - N/A   Mostly Cloudy
10:53 PM 51.1 °F - 34.0 °F 52% 29.97 in 10.0 mi SSE 11.5 mph - N/A   Overcast
11:53 PM 50.0 °F - 34.0 °F 54% 29.96 in 10.0 mi South 10.4 mph - N/A   Overcast